Regional Weather Roundup
Issued by NWS

Home | Current Version | Previous Version | Graphics & Text | Print | Product List | Glossary On
Versions: 1 2 3 4 5 6 7 8 9 10 11 12 13 14 15 16 17 18 19 20 21 22 23 24 25 26 27 28 29 30 31 32 33 34 35 36 37 38 39 40 41 42 43 44 45 46 47 48 49 50
000
ASUS43 KOAX 272210
RWRNE

WEATHER ROUNDUP FOR NEBRASKA
NATIONAL WEATHER SERVICE OMAHA NE
400 PM CST MON FEB 27 2017

NOTES: SATELLITE DATA IS BEING USED TO AUGMENT CLOUD COVER ABOVE
       12000 FEET.
       "FAIR" INDICATES FEW OR NO CLOUDS BELOW 12,000 FEET WITH NO
       SIGNIFICANT WEATHER AND/OR OBSTRUCTIONS TO VISIBILITY.

  * THESE STATIONS DO NOT REPORT WEATHER SUCH AS RAIN...SNOW OR FOG.

NEZ001>004-019>022-054>056-272300-
NEBRASKA PANHANDLE

CITY           SKY/WX    TMP DP  RH WIND       PRES   REMARKS
SCOTTSBLUFF    MOSUNNY   37  23  56 E9        29.53F WCI  30
ALLIANCE       MOSUNNY   33  26  75 SE9       29.55F WCI  25
CHADRON        CLOUDY    38  20  48 CALM      29.57F
KIMBALL        PTSUNNY   51  22  32 S18G24    29.52F
SIDNEY         SUNNY     54  14  20 S15       29.54F
$$

NEZ057>060-069>072-079>082-272300-
SOUTHWEST NEBRASKA

CITY           SKY/WX    TMP DP  RH WIND       PRES   REMARKS
NORTH PLATTE   SUNNY     52  26  36 S9        29.63F
IMPERIAL       SUNNY     54  15  21 S12       29.60F
LEXINGTON      SUNNY     54  30  39 S12       29.64F
MCCOOK         SUNNY     56  23  27 S12G18    29.63F
OGALLALA       SUNNY     52  27  38 SE8       29.61F
$$

NEZ005>010-023>029-035>040-094-272300-
NORTH CENTRAL NEBRASKA

CITY           SKY/WX    TMP DP  RH WIND       PRES   REMARKS
VALENTINE      SUNNY     40  29  64 W7        29.63F
AINSWORTH      SUNNY     44  32  63 CALM      29.64R
BROKEN BOW     SUNNY     49  33  54 S16G25    29.65F
O`NEILL        SUNNY     45  31  59 S9        29.69F
ORD            SUNNY     51  31  46 S14G25    29.67F
THEDFORD       SUNNY     47  32  55 S10       29.63S
$$

NEZ041-046>049-061>064-073>077-083>087-272300-
SOUTH CENTRAL NEBRASKA

CITY           SKY/WX    TMP DP  RH WIND       PRES   REMARKS
GRAND ISLAND   MOSUNNY   53  36  52 S18G24    29.69F
AURORA         PTSUNNY   55  37  51 S14G23    29.70F
HASTINGS       MOSUNNY   56  35  45 S13       29.69F
HEBRON         PTSUNNY   56  40  54 S17       29.72S
HOLDREGE       SUNNY     56  25  30 S15G21    29.66S
KEARNEY *      MOSUNNY   55  34  44 S20G25    29.67F
YORK           MOSUNNY   54  36  50 S15       29.72F
$$

NEZ011>018-030>034-042>045-272300-
NORTHEAST NEBRASKA

CITY           SKY/WX    TMP DP  RH WIND       PRES   REMARKS
NORFOLK        SUNNY     48  30  49 SE15      29.72F
ALBION         MOSUNNY   50  32  49 S13       29.70F
BLAIR          PTSUNNY   55  28  35 SE21      29.76F
FREMONT        PTSUNNY   52  26  36 SE16      29.76F
TEKAMAH        SUNNY     50  34  54 SE15      29.78F
WAYNE          SUNNY     44  32  63 SE13      29.74F
$$

NEZ050>053-065>068-078-088>093-272300-
SOUTHEAST NEBRASKA

CITY           SKY/WX    TMP DP  RH WIND       PRES   REMARKS
LINCOLN        CLOUDY    56  35  45 S23       29.76F
OMAHA EPPLEY   PTSUNNY   57  26  30 SE24G30   29.77F
BEATRICE       CLOUDY    55  38  51 SE14G21   29.74F
FALLS CITY     PTSUNNY   59  33  37 SE18G28   29.77F
NEBRASKA CITY  CLOUDY    53  25  33 SE15G21   29.77F
PLATTSMOUTH    CLOUDY    54  21  28 SE13G21   29.77F
$$

NEZ044-045-051>053-067-272300-
OMAHA AREA

CITY           SKY/WX    TMP DP  RH WIND       PRES   REMARKS
OMAHA EPPLEY   PTSUNNY   57  26  30 SE24G30   29.77F
BLAIR          PTSUNNY   55  28  35 SE21      29.76F
FREMONT        PTSUNNY   52  26  36 SE16      29.76F
MILLARD        CLOUDY    57  27  32 SE18G29   29.77F
OFFUTT AFB     CLOUDY    54  22  27 SE18      29.77F
PLATTSMOUTH    CLOUDY    54  21  28 SE13G21   29.77F
WAHOO          CLOUDY    53  28  39 SE16      29.77S
$$



USA.gov is the U.S. government's official web portal to all federal, state and local government web resources and services.